Time,TemperatureF,DewpointF,PressureIn,WindDirection,WindDirectionDegrees,WindSpeedMPH,WindSpeedGustMPH,Humidity,HourlyPrecipIn,Conditions,Clouds,dailyrainin,SoftwareType,DateUTC
2013-10-30 00:00:00,39.4,32.8,30.31,South,169,0.0,0.0,77,0.00,,OVC,0.00,VWS V14.01,2013-10-30 04:00:00,
2013-10-30 00:01:00,39.4,32.8,30.31,South,170,0.0,0.0,77,0.00,,OVC085,0.00,VWS V14.01,2013-10-30 04:01:00,
2013-10-30 00:02:00,39.4,32.8,30.31,South,170,0.0,0.0,77,0.00,,OVC085,0.00,VWS V14.01,2013-10-30 04:02:00,
2013-10-30 00:05:00,39.4,33.1,30.31,South,170,0.0,0.0,78,0.00,,OVC085,0.00,VWS V14.01,2013-10-30 04:05:00,
2013-10-30 00:10:00,39.2,32.6,30.31,South,170,0.0,0.0,77,0.00,,OVC085,0.00,VWS V14.01,2013-10-30 04:10:00,
2013-10-30 00:15:00,39.2,32.6,30.31,South,170,0.0,0.0,77,0.00,,OVC085,0.00,VWS V14.01,2013-10-30 04:15:00,
2013-10-30 00:20:00,39.2,32.9,30.31,South,170,0.0,0.0,78,0.00,,OVC085,0.00,VWS V14.01,2013-10-30 04:20:00,
2013-10-30 00:25:00,39.1,34.1,30.31,South,170,0.0,0.0,82,0.00,,OVC085,0.00,VWS V14.01,2013-10-30 04:25:00,
2013-10-30 00:30:00,38.9,33.9,30.30,South,170,0.0,0.0,82,0.00,,OVC,0.00,VWS V14.01,2013-10-30 04:30:00,
2013-10-30 00:31:00,39.0,34.0,30.30,South,170,0.0,0.0,82,0.00,,OVC085,0.00,VWS V14.01,2013-10-30 04:31:00,
2013-10-30 00:36:00,38.9,33.9,30.30,South,170,0.0,0.0,82,0.00,,OVC085,0.00,VWS V14.01,2013-10-30 04:36:00,
2013-10-30 00:41:00,38.8,33.5,30.30,South,170,0.0,0.0,81,0.00,,OVC085,0.00,VWS V14.01,2013-10-30 04:41:00,
2013-10-30 00:46:00,38.8,32.9,30.30,South,169,0.0,0.0,79,0.00,,OVC070,0.00,VWS V14.01,2013-10-30 04:46:00,
2013-10-30 00:51:00,38.9,33.0,30.30,South,188,0.0,0.0,79,0.00,,OVC070,0.00,VWS V14.01,2013-10-30 04:51:00,
2013-10-30 00:56:00,38.9,33.3,30.30,South,188,0.0,0.0,80,0.00,,OVC070,0.00,VWS V14.01,2013-10-30 04:56:00,
2013-10-30 01:00:00,38.9,33.0,30.30,WSW,248,0.0,0.0,79,0.00,,OVC,0.00,VWS V14.01,2013-10-30 05:00:00,
2013-10-30 01:01:00,38.9,33.0,30.30,WSW,248,0.0,0.0,79,0.00,,OVC070,0.00,VWS V14.01,2013-10-30 05:01:00,
2013-10-30 01:06:00,38.9,32.6,30.30,WSW,248,0.0,0.0,78,0.00,,OVC070,0.00,VWS V14.01,2013-10-30 05:06:00,
2013-10-30 01:11:00,39.0,33.0,30.30,WSW,247,0.0,0.0,79,0.00,,OVC070,0.00,VWS V14.01,2013-10-30 05:11:00,
2013-10-30 01:17:00,38.9,33.3,30.30,WSW,248,0.0,0.0,80,0.00,,OVC070,0.00,VWS V14.01,2013-10-30 05:17:00,
2013-10-30 01:22:00,38.9,33.6,30.30,WSW,248,0.0,0.0,81,0.00,,OVC070,0.00,VWS V14.01,2013-10-30 05:22:00,
2013-10-30 01:27:00,38.9,33.6,30.30,WSW,248,0.0,0.0,81,0.00,,OVC070,0.00,VWS V14.01,2013-10-30 05:27:00,
2013-10-30 01:30:00,38.9,33.9,30.29,WSW,247,0.0,0.0,82,0.00,,OVC,0.00,VWS V14.01,2013-10-30 05:30:00,
2013-10-30 01:32:00,38.9,33.9,30.30,WSW,247,0.0,0.0,82,0.00,,OVC070,0.00,VWS V14.01,2013-10-30 05:32:00,
2013-10-30 01:37:00,38.9,33.9,30.30,WSW,248,0.0,0.0,82,0.00,,OVC070,0.00,VWS V14.01,2013-10-30 05:37:00,
2013-10-30 01:42:00,38.9,33.9,30.29,WSW,248,0.0,0.0,82,0.00,,OVC070,0.00,VWS V14.01,2013-10-30 05:42:00,
2013-10-30 01:47:00,38.9,33.9,30.29,WSW,247,0.0,0.0,82,0.00,,OVC060,0.00,VWS V14.01,2013-10-30 05:47:00,
2013-10-30 01:52:00,38.9,34.2,30.29,WSW,248,0.0,0.0,83,0.00,,OVC060,0.00,VWS V14.01,2013-10-30 05:52:00,
2013-10-30 01:57:00,38.9,34.2,30.29,WSW,248,0.0,0.0,83,0.00,,OVC060,0.00,VWS V14.01,2013-10-30 05:57:00,
2013-10-30 02:00:00,38.8,34.1,30.29,WSW,248,0.0,0.0,83,0.00,,OVC,0.00,VWS V14.01,2013-10-30 06:00:00,
2013-10-30 02:02:00,38.8,34.1,30.29,WSW,248,0.0,0.0,83,0.00,,OVC060,0.00,VWS V14.01,2013-10-30 06:02:00,
2013-10-30 02:07:00,38.9,34.5,30.29,WSW,248,0.0,0.0,84,0.00,,OVC060,0.00,VWS V14.01,2013-10-30 06:07:00,
2013-10-30 02:12:00,38.9,34.5,30.29,WSW,247,0.0,0.0,84,0.00,,OVC060,0.00,VWS V14.01,2013-10-30 06:12:00,
2013-10-30 02:18:00,38.9,34.5,30.28,WSW,248,0.0,0.0,84,0.00,,OVC060,0.00,VWS V14.01,2013-10-30 06:18:00,
2013-10-30 02:23:00,38.9,34.5,30.28,WSW,248,0.0,0.0,84,0.00,,OVC060,0.00,VWS V14.01,2013-10-30 06:23:00,
2013-10-30 02:28:00,39.0,34.9,30.28,WSW,247,0.0,0.0,85,0.00,,OVC060,0.00,VWS V14.01,2013-10-30 06:28:00,
2013-10-30 02:30:00,39.0,34.9,30.28,WSW,248,0.0,0.0,85,0.00,,OVC,0.00,VWS V14.01,2013-10-30 06:30:00,
2013-10-30 02:33:00,39.0,34.9,30.28,WSW,248,0.0,0.0,85,0.00,,OVC060,0.00,VWS V14.01,2013-10-30 06:33:00,
2013-10-30 02:38:00,39.1,34.7,30.28,WSW,248,0.0,0.0,84,0.00,,OVC060,0.00,VWS V14.01,2013-10-30 06:38:00,
2013-10-30 02:43:00,39.2,35.1,30.28,WSW,248,0.0,0.0,85,0.00,,OVC060,0.00,VWS V14.01,2013-10-30 06:43:00,
2013-10-30 02:48:00,39.4,35.6,30.27,WSW,247,0.0,0.0,86,0.00,,OVC060,0.00,VWS V14.01,2013-10-30 06:48:00,
2013-10-30 02:53:00,39.3,35.5,30.27,WSW,247,0.0,0.0,86,0.00,,OVC060,0.00,VWS V14.01,2013-10-30 06:53:00,
2013-10-30 02:58:00,39.3,35.8,30.27,WSW,248,0.0,0.0,87,0.00,,OVC060,0.00,VWS V14.01,2013-10-30 06:58:00,
2013-10-30 03:00:00,39.3,35.8,30.27,WSW,247,0.0,0.0,87,0.00,,OVC,0.00,VWS V14.01,2013-10-30 07:00:00,
2013-10-30 03:03:00,39.3,35.8,30.27,WSW,247,0.0,0.0,87,0.00,,OVC060,0.00,VWS V14.01,2013-10-30 07:03:00,
2013-10-30 03:08:00,39.1,35.6,30.27,WSW,247,0.0,0.0,87,0.00,,OVC060,0.00,VWS V14.01,2013-10-30 07:08:00,
2013-10-30 03:13:00,39.0,35.5,30.27,WSW,248,0.0,0.0,87,0.00,,OVC060,0.00,VWS V14.01,2013-10-30 07:13:00,
2013-10-30 03:19:00,39.1,36.1,30.27,WSW,247,0.0,0.0,89,0.00,,OVC060,0.00,VWS V14.01,2013-10-30 07:19:00,
2013-10-30 03:25:00,39.1,36.1,30.27,WSW,247,0.0,0.0,89,0.00,,OVC060,0.00,VWS V14.01,2013-10-30 07:25:00,
2013-10-30 03:30:00,38.9,35.9,30.27,WSW,248,0.0,0.0,89,0.00,,OVC060,0.00,VWS V14.01,2013-10-30 07:30:00,
2013-10-30 03:35:00,38.9,36.2,30.27,WSW,248,0.0,0.0,90,0.00,,OVC060,0.00,VWS V14.01,2013-10-30 07:35:00,
2013-10-30 03:40:00,38.9,36.2,30.27,WSW,248,0.0,0.0,90,0.00,,OVC060,0.00,VWS V14.01,2013-10-30 07:40:00,
2013-10-30 03:45:00,38.9,35.9,30.27,WSW,247,0.0,0.0,89,0.00,,-RA,0.00,VWS V14.01,2013-10-30 07:45:00,
2013-10-30 03:50:00,38.9,35.9,30.27,WSW,248,0.0,0.0,89,0.00,,-RA,0.00,VWS V14.01,2013-10-30 07:50:00,
2013-10-30 03:55:00,38.9,35.9,30.27,WSW,248,0.0,0.0,89,0.00,,-RA,0.00,VWS V14.01,2013-10-30 07:55:00,
2013-10-30 04:00:00,39.1,36.4,30.27,WSW,248,0.0,0.0,90,0.00,,-RA,0.00,VWS V14.01,2013-10-30 08:00:00,
2013-10-30 04:05:00,39.2,36.5,30.27,WSW,248,0.0,0.0,90,0.00,,-RA,0.00,VWS V14.01,2013-10-30 08:05:00,
2013-10-30 04:11:00,39.3,36.6,30.27,WSW,248,0.0,0.0,90,0.00,,-RA,0.00,VWS V14.01,2013-10-30 08:11:00,
2013-10-30 04:16:00,39.3,36.9,30.27,WSW,248,0.0,0.0,91,0.00,,-RA,0.00,VWS V14.01,2013-10-30 08:16:00,
2013-10-30 04:21:00,39.3,36.9,30.27,WSW,248,0.0,0.0,91,0.00,,-RA,0.00,VWS V14.01,2013-10-30 08:21:00,
2013-10-30 04:26:00,39.3,36.9,30.27,WSW,248,0.0,0.0,91,0.00,,-RA,0.00,VWS V14.01,2013-10-30 08:26:00,
2013-10-30 04:30:00,39.2,36.8,30.27,WSW,247,0.0,0.0,91,0.00,,OVC,0.00,VWS V14.01,2013-10-30 08:30:00,
2013-10-30 04:31:00,39.2,36.8,30.27,WSW,248,0.0,0.0,91,0.00,,-RA,0.00,VWS V14.01,2013-10-30 08:31:00,
2013-10-30 04:36:00,39.2,37.1,30.27,WSW,247,0.0,0.0,92,0.00,,-RA,0.00,VWS V14.01,2013-10-30 08:36:00,
2013-10-30 04:41:00,39.2,37.1,30.27,WSW,248,0.0,0.0,92,0.00,,-RA,0.00,VWS V14.01,2013-10-30 08:41:00,
2013-10-30 04:46:00,39.2,37.1,30.27,WSW,247,0.0,0.0,92,0.00,,-RA,0.00,VWS V14.01,2013-10-30 08:46:00,
2013-10-30 04:51:00,39.2,37.1,30.27,WSW,247,0.0,0.0,92,0.00,,-RA,0.00,VWS V14.01,2013-10-30 08:51:00,
2013-10-30 04:56:00,39.1,37.0,30.27,WSW,247,0.0,0.0,92,0.00,,-RA,0.00,VWS V14.01,2013-10-30 08:56:00,
2013-10-30 05:00:00,39.2,37.3,30.26,WSW,248,0.0,0.0,93,0.00,,OVC,0.00,VWS V14.01,2013-10-30 09:00:00,
2013-10-30 05:02:00,39.2,37.3,30.27,WSW,248,0.0,0.0,93,0.00,,-RA,0.00,VWS V14.01,2013-10-30 09:02:00,
2013-10-30 05:07:00,39.1,37.2,30.27,WSW,248,0.0,0.0,93,0.00,,-RA,0.00,VWS V14.01,2013-10-30 09:07:00,
2013-10-30 05:12:00,39.2,37.3,30.27,WSW,247,0.0,0.0,93,0.00,,-RA,0.00,VWS V14.01,2013-10-30 09:12:00,
2013-10-30 05:17:00,39.2,37.3,30.26,South,190,0.0,0.0,93,0.00,,-RA,0.00,VWS V14.01,2013-10-30 09:17:00,
2013-10-30 05:22:00,39.2,37.3,30.26,South,190,0.0,0.0,93,0.00,,-RA,0.00,VWS V14.01,2013-10-30 09:22:00,
2013-10-30 05:27:00,39.2,37.3,30.26,South,191,0.0,0.0,93,0.00,,-RA,0.00,VWS V14.01,2013-10-30 09:27:00,
2013-10-30 05:30:00,39.2,37.3,30.26,South,190,0.0,0.0,93,0.00,,OVC,0.00,VWS V14.01,2013-10-30 09:30:00,
2013-10-30 05:32:00,39.2,37.3,30.26,South,191,0.0,0.0,93,0.00,,-RA,0.00,VWS V14.01,2013-10-30 09:32:00,
2013-10-30 05:37:00,39.1,37.2,30.26,South,190,0.0,0.0,93,0.00,,-RA,0.00,VWS V14.01,2013-10-30 09:37:00,
2013-10-30 05:42:00,39.0,37.2,30.26,South,190,0.0,0.0,93,0.00,,-RA,0.00,VWS V14.01,2013-10-30 09:42:00,
2013-10-30 05:47:00,39.0,37.2,30.26,South,190,0.0,0.0,93,0.00,,-RA,0.00,VWS V14.01,2013-10-30 09:47:00,
2013-10-30 05:52:00,38.9,37.0,30.25,South,190,0.0,0.0,93,0.00,,-RA,0.00,VWS V14.01,2013-10-30 09:52:00,
2013-10-30 05:58:00,39.0,37.2,30.26,South,190,0.0,0.0,93,0.00,,-RA,0.00,VWS V14.01,2013-10-30 09:58:00,
2013-10-30 06:00:00,39.1,37.2,30.26,South,190,0.0,0.0,93,0.00,,OVC,0.00,VWS V14.01,2013-10-30 10:00:00,
2013-10-30 06:03:00,39.0,37.2,30.26,South,190,0.0,0.0,93,0.00,,-RA,0.00,VWS V14.01,2013-10-30 10:03:00,
2013-10-30 06:08:00,39.0,37.2,30.26,South,190,0.0,0.0,93,0.00,,-RA,0.00,VWS V14.01,2013-10-30 10:08:00,
2013-10-30 06:13:00,38.9,36.8,30.27,South,190,0.0,0.0,92,0.00,,-RA,0.00,VWS V14.01,2013-10-30 10:13:00,
2013-10-30 06:18:00,38.7,36.6,30.27,South,190,0.0,0.0,92,0.00,,-RA,0.00,VWS V14.01,2013-10-30 10:18:00,
2013-10-30 06:23:00,38.3,35.9,30.27,South,191,0.0,0.0,91,0.00,,-RA,0.00,VWS V14.01,2013-10-30 10:23:00,
2013-10-30 06:28:00,38.0,35.6,30.27,South,191,0.0,0.0,91,0.00,,-RA,0.00,VWS V14.01,2013-10-30 10:28:00,
2013-10-30 06:30:00,37.8,35.1,30.27,South,191,0.0,0.0,90,0.00,,OVC,0.00,VWS V14.01,2013-10-30 10:30:00,
2013-10-30 06:33:00,37.8,35.1,30.27,South,191,0.0,0.0,90,0.00,,-RA,0.00,VWS V14.01,2013-10-30 10:33:00,
2013-10-30 06:38:00,37.9,35.2,30.27,SSW,192,0.0,0.0,90,0.00,,-RA,0.00,VWS V14.01,2013-10-30 10:38:00,
2013-10-30 06:43:00,38.0,35.3,30.27,South,191,0.0,0.0,90,0.00,,-RA,0.00,VWS V14.01,2013-10-30 10:43:00,
2013-10-30 06:48:00,38.1,35.4,30.27,SSW,192,0.0,0.0,90,0.00,,OVC065,0.00,VWS V14.01,2013-10-30 10:48:00,
2013-10-30 06:54:00,38.2,35.5,30.27,South,191,0.0,0.0,90,0.00,,OVC065,0.00,VWS V14.01,2013-10-30 10:54:00,
2013-10-30 06:59:00,38.3,35.6,30.27,South,191,0.0,0.0,90,0.00,,OVC065,0.00,VWS V14.01,2013-10-30 10:59:00,
2013-10-30 07:00:00,38.4,35.7,30.27,South,191,0.0,0.0,90,0.00,,OVC,0.00,VWS V14.01,2013-10-30 11:00:00,
2013-10-30 07:04:00,38.4,35.7,30.27,South,191,0.0,0.0,90,0.00,,OVC065,0.00,VWS V14.01,2013-10-30 11:04:00,
2013-10-30 07:09:00,38.5,35.5,30.27,South,191,0.0,0.0,89,0.00,,OVC065,0.00,VWS V14.01,2013-10-30 11:09:00,
2013-10-30 07:14:00,38.5,35.8,30.27,SSW,193,0.0,0.0,90,0.00,,OVC065,0.00,VWS V14.01,2013-10-30 11:14:00,
2013-10-30 07:19:00,38.3,35.9,30.27,SSW,193,0.0,0.0,91,0.00,,OVC065,0.00,VWS V14.01,2013-10-30 11:19:00,
2013-10-30 07:24:00,38.1,35.7,30.27,SSW,193,0.0,0.0,91,0.00,,OVC065,0.00,VWS V14.01,2013-10-30 11:24:00,
2013-10-30 07:29:00,37.9,35.8,30.27,SSW,193,0.0,0.0,92,0.00,,OVC065,0.00,VWS V14.01,2013-10-30 11:29:00,
2013-10-30 07:30:00,37.9,35.8,30.26,SSW,193,0.0,0.0,92,0.00,,OVC,0.00,VWS V14.01,2013-10-30 11:30:00,
2013-10-30 07:34:00,37.9,35.8,30.27,SSW,193,0.0,0.0,92,0.00,,OVC065,0.00,VWS V14.01,2013-10-30 11:34:00,
2013-10-30 07:39:00,37.8,35.7,30.27,SSW,193,0.0,0.0,92,0.00,,OVC065,0.00,VWS V14.01,2013-10-30 11:39:00,
2013-10-30 07:45:00,37.9,36.1,30.26,SSW,193,0.0,0.0,93,0.00,,OVC065,0.00,VWS V14.01,2013-10-30 11:45:00,
2013-10-30 07:50:00,37.9,36.1,30.26,South,191,0.0,0.0,93,0.00,,BKN085,0.00,VWS V14.01,2013-10-30 11:50:00,
2013-10-30 07:55:00,37.9,36.1,30.26,South,191,0.0,0.0,93,0.00,,BKN085,0.00,VWS V14.01,2013-10-30 11:55:00,
2013-10-30 08:00:00,38.0,36.2,30.26,SSW,193,0.0,0.0,93,0.00,,BKN085,0.00,VWS V14.01,2013-10-30 12:00:00,
2013-10-30 08:05:00,38.1,36.3,30.26,SW,223,0.0,0.0,93,0.00,,BKN085,0.00,VWS V14.01,2013-10-30 12:05:00,
2013-10-30 08:10:00,38.1,36.3,30.27,SW,222,0.0,0.0,93,0.00,,BKN085,0.00,VWS V14.01,2013-10-30 12:10:00,
2013-10-30 08:15:00,38.1,36.3,30.26,SW,222,0.0,0.0,93,0.00,,BKN085,0.00,VWS V14.01,2013-10-30 12:15:00,
2013-10-30 08:20:00,38.2,36.4,30.26,SW,219,0.0,0.0,93,0.00,,BKN085,0.00,VWS V14.01,2013-10-30 12:20:00,
2013-10-30 08:25:00,38.3,36.5,30.27,SW,221,0.0,0.0,93,0.00,,BKN085,0.00,VWS V14.01,2013-10-30 12:25:00,
2013-10-30 08:30:00,38.4,36.6,30.27,SW,221,0.0,0.0,93,0.00,,BKN085,0.00,VWS V14.01,2013-10-30 12:30:00,
2013-10-30 08:36:00,38.4,36.6,30.27,SW,221,0.0,0.0,93,0.00,,BKN085,0.00,VWS V14.01,2013-10-30 12:36:00,
2013-10-30 08:41:00,38.5,36.7,30.27,SW,221,0.0,0.0,93,0.00,,BKN085,0.00,VWS V14.01,2013-10-30 12:41:00,
2013-10-30 08:46:00,38.7,36.8,30.27,SW,221,0.0,0.0,93,0.00,,BKN085,0.00,VWS V14.01,2013-10-30 12:46:00,
2013-10-30 08:51:00,38.9,37.3,30.27,SW,222,0.0,0.0,94,0.00,,BKN085,0.00,VWS V14.01,2013-10-30 12:51:00,
2013-10-30 08:56:00,39.2,37.6,30.28,SW,223,0.0,0.0,94,0.00,,BKN085,0.00,VWS V14.01,2013-10-30 12:56:00,
2013-10-30 09:00:00,39.6,38.0,30.28,SW,221,0.0,0.0,94,0.00,,OVC,0.00,VWS V14.01,2013-10-30 13:00:00,
2013-10-30 09:01:00,39.5,37.9,30.28,SW,222,0.0,0.0,94,0.00,,OVC085,0.00,VWS V14.01,2013-10-30 13:01:00,
2013-10-30 09:06:00,39.8,38.2,30.27,SW,236,0.0,0.0,94,0.00,,OVC085,0.00,VWS V14.01,2013-10-30 13:06:00,
2013-10-30 09:11:00,39.9,38.0,30.28,SW,236,0.0,0.0,93,0.00,,OVC085,0.00,VWS V14.01,2013-10-30 13:11:00,
2013-10-30 09:16:00,40.1,38.2,30.27,SW,236,0.0,0.0,93,0.00,,OVC085,0.00,VWS V14.01,2013-10-30 13:16:00,
2013-10-30 09:21:00,40.4,38.5,30.27,SW,236,0.0,0.0,93,0.00,,OVC085,0.00,VWS V14.01,2013-10-30 13:21:00,
2013-10-30 09:27:00,40.6,38.7,30.27,SW,232,0.0,0.0,93,0.00,,OVC085,0.00,VWS V14.01,2013-10-30 13:27:00,
2013-10-30 09:30:00,41.0,38.9,30.27,SW,232,0.0,0.0,92,0.00,,OVC,0.00,VWS V14.01,2013-10-30 13:30:00,
2013-10-30 09:32:00,40.9,38.8,30.27,SW,232,0.0,0.0,92,0.00,,OVC085,0.00,VWS V14.01,2013-10-30 13:32:00,
2013-10-30 09:37:00,41.3,39.2,30.27,East,93,0.0,1.0,92,0.00,,OVC085,0.00,VWS V14.01,2013-10-30 13:37:00,
2013-10-30 09:42:00,41.7,39.3,30.27,ESE,110,0.0,2.0,91,0.00,,OVC085,0.00,VWS V14.01,2013-10-30 13:42:00,
2013-10-30 09:47:00,42.2,39.8,30.27,East,81,0.0,2.0,91,0.00,,BKN110,0.00,VWS V14.01,2013-10-30 13:47:00,
2013-10-30 09:52:00,42.6,39.9,30.28,East,81,0.0,2.0,90,0.00,,BKN110,0.00,VWS V14.01,2013-10-30 13:52:00,
2013-10-30 09:57:00,42.9,39.9,30.28,ESE,111,2.0,2.0,89,0.00,,BKN110,0.00,VWS V14.01,2013-10-30 13:57:00,
2013-10-30 10:00:00,43.2,39.3,30.28,SE,125,1.0,3.0,86,0.00,,OVC,0.00,VWS V14.01,2013-10-30 14:00:00,
2013-10-30 10:02:00,43.2,39.3,30.28,ESE,115,3.0,3.0,86,0.00,,BKN110,0.00,VWS V14.01,2013-10-30 14:02:00,
2013-10-30 10:07:00,43.5,39.6,30.28,ESE,121,3.0,3.0,86,0.00,,BKN110,0.00,VWS V14.01,2013-10-30 14:07:00,
2013-10-30 10:12:00,43.6,39.4,30.28,East,81,1.0,3.0,85,0.00,,BKN110,0.00,VWS V14.01,2013-10-30 14:12:00,
2013-10-30 10:18:00,43.7,39.5,30.28,East,96,0.0,3.0,85,0.00,,BKN110,0.00,VWS V14.01,2013-10-30 14:18:00,
2013-10-30 10:23:00,44.0,40.1,30.28,East,80,0.0,3.0,86,0.00,,BKN110,0.00,VWS V14.01,2013-10-30 14:23:00,
2013-10-30 10:28:00,44.2,39.7,30.28,SE,135,0.0,3.0,84,0.00,,BKN110,0.00,VWS V14.01,2013-10-30 14:28:00,
2013-10-30 10:30:00,44.3,39.8,30.27,SE,125,0.0,3.0,84,0.00,,OVC,0.00,VWS V14.01,2013-10-30 14:30:00,
2013-10-30 10:33:00,44.3,39.8,30.27,SE,125,0.0,3.0,84,0.00,,BKN110,0.00,VWS V14.01,2013-10-30 14:33:00,
2013-10-30 10:38:00,44.9,40.4,30.27,East,98,1.0,2.0,84,0.00,,BKN110,0.00,VWS V14.01,2013-10-30 14:38:00,
2013-10-30 10:43:00,45.4,40.2,30.27,East,93,1.0,3.0,82,0.00,,BKN110,0.00,VWS V14.01,2013-10-30 14:43:00,
2013-10-30 10:48:00,46.0,40.8,30.27,SE,126,2.0,3.0,82,0.00,,SCT110,0.00,VWS V14.01,2013-10-30 14:48:00,
2013-10-30 10:53:00,46.8,41.0,30.27,SSE,148,1.0,4.0,80,0.00,,SCT110,0.00,VWS V14.01,2013-10-30 14:53:00,
2013-10-30 10:58:00,47.3,41.5,30.27,SSE,158,2.0,4.0,80,0.00,,SCT110,0.00,VWS V14.01,2013-10-30 14:58:00,
2013-10-30 11:00:00,47.6,40.8,30.27,South,188,0.0,4.0,77,0.00,,OVC,0.00,VWS V14.01,2013-10-30 15:00:00,
2013-10-30 11:03:00,47.6,40.8,30.27,ESE,121,3.0,3.0,77,0.00,,SCT110,0.00,VWS V14.01,2013-10-30 15:03:00,
2013-10-30 11:09:00,48.3,41.4,30.27,South,181,2.0,3.0,77,0.00,,SCT110,0.00,VWS V14.01,2013-10-30 15:09:00,
2013-10-30 11:14:00,48.7,41.5,30.27,SE,146,1.0,3.0,76,0.00,,SCT110,0.00,VWS V14.01,2013-10-30 15:14:00,
2013-10-30 11:19:00,49.2,41.3,30.27,South,176,2.0,3.0,74,0.00,,SCT110,0.00,VWS V14.01,2013-10-30 15:19:00,
2013-10-30 11:24:00,49.7,41.4,30.27,ESE,104,1.0,3.0,73,0.00,,SCT110,0.00,VWS V14.01,2013-10-30 15:24:00,
2013-10-30 11:29:00,49.9,41.6,30.27,East,93,1.0,3.0,73,0.00,,SCT110,0.00,VWS V14.01,2013-10-30 15:29:00,
2013-10-30 11:30:00,49.8,41.5,30.27,East,82,0.0,3.0,73,0.00,,OVC,0.00,VWS V14.01,2013-10-30 15:30:00,
2013-10-30 11:34:00,49.7,41.4,30.27,ENE,71,2.0,2.0,73,0.00,,SCT110,0.00,VWS V14.01,2013-10-30 15:34:00,
2013-10-30 11:39:00,49.9,42.0,30.27,East,82,1.0,2.0,74,0.00,,SCT110,0.00,VWS V14.01,2013-10-30 15:39:00,
2013-10-30 11:44:00,50.0,41.3,30.27,North,354,0.0,3.0,72,0.00,,SCT110,0.00,VWS V14.01,2013-10-30 15:44:00,
2013-10-30 11:49:00,50.4,42.1,30.27,SE,134,3.0,3.0,73,0.00,,SCT110,0.00,VWS V14.01,2013-10-30 15:49:00,
2013-10-30 11:54:00,50.6,41.9,30.26,East,86,2.0,3.0,72,0.00,,SCT110,0.00,VWS V14.01,2013-10-30 15:54:00,
2013-10-30 11:59:00,51.0,42.3,30.26,ESE,114,0.0,3.0,72,0.00,,SCT110,0.00,VWS V14.01,2013-10-30 15:59:00,
2013-10-30 12:00:00,51.4,42.0,30.26,South,189,1.0,3.0,70,0.00,,OVC,0.00,VWS V14.01,2013-10-30 16:00:00,
2013-10-30 12:05:00,51.5,41.7,30.26,SE,142,1.0,1.0,69,0.00,,SCT110,0.00,VWS V14.01,2013-10-30 16:05:00,
2013-10-30 12:10:00,51.6,41.8,30.26,SSE,155,0.0,3.0,69,0.00,,SCT110,0.00,VWS V14.01,2013-10-30 16:10:00,
2013-10-30 12:15:00,51.5,40.9,30.26,ESE,115,0.0,3.0,67,0.00,,SCT110,0.00,VWS V14.01,2013-10-30 16:15:00,
2013-10-30 12:20:00,51.6,41.4,30.26,South,174,1.0,3.0,68,0.00,,SCT110,0.00,VWS V14.01,2013-10-30 16:20:00,
2013-10-30 12:25:00,51.9,41.3,30.25,ESE,105,2.0,3.0,67,0.00,,SCT110,0.00,VWS V14.01,2013-10-30 16:25:00,
2013-10-30 12:30:00,52.2,41.2,30.25,North,356,2.0,3.0,66,0.00,,SCT110,0.00,VWS V14.01,2013-10-30 16:30:00,
2013-10-30 12:35:00,52.2,41.2,30.24,East,101,1.0,3.0,66,0.00,,SCT110,0.00,VWS V14.01,2013-10-30 16:35:00,
2013-10-30 12:40:00,52.4,40.6,30.24,ENE,77,1.0,4.0,64,0.00,,SCT110,0.00,VWS V14.01,2013-10-30 16:40:00,
2013-10-30 12:45:00,52.7,41.3,30.24,East,80,1.0,4.0,65,0.00,,BKN100,0.00,VWS V14.01,2013-10-30 16:45:00,
2013-10-30 12:50:00,53.4,41.9,30.24,South,183,2.0,4.0,65,0.00,,BKN100,0.00,VWS V14.01,2013-10-30 16:50:00,
2013-10-30 12:56:00,53.9,40.8,30.23,SW,218,1.0,4.0,61,0.00,,BKN100,0.00,VWS V14.01,2013-10-30 16:56:00,
2013-10-30 13:00:00,54.3,41.6,30.22,East,87,1.0,6.0,62,0.00,,OVC,0.00,VWS V14.01,2013-10-30 17:00:00,
2013-10-30 13:01:00,54.2,41.9,30.23,ENE,77,3.0,6.0,63,0.00,,BKN100,0.00,VWS V14.01,2013-10-30 17:01:00,
2013-10-30 13:06:00,54.2,40.6,30.22,ESE,110,1.0,2.0,60,0.00,,BKN100,0.00,VWS V14.01,2013-10-30 17:06:00,
2013-10-30 13:11:00,54.3,41.2,30.22,SE,136,0.0,3.0,61,0.00,,BKN100,0.00,VWS V14.01,2013-10-30 17:11:00,
2013-10-30 13:16:00,54.5,40.9,30.22,South,177,1.0,3.0,60,0.00,,BKN100,0.00,VWS V14.01,2013-10-30 17:16:00,
2013-10-30 13:21:00,54.7,41.1,30.21,SW,235,3.0,5.0,60,0.00,,BKN100,0.00,VWS V14.01,2013-10-30 17:21:00,
2013-10-30 13:26:00,54.8,41.2,30.21,SSW,200,1.0,5.0,60,0.00,,BKN100,0.00,VWS V14.01,2013-10-30 17:26:00,
2013-10-30 13:30:00,54.6,40.6,30.21,SE,128,1.0,5.0,59,0.00,,OVC,0.00,VWS V14.01,2013-10-30 17:30:00,
2013-10-30 13:31:00,54.6,40.6,30.21,SW,231,1.0,5.0,59,0.00,,BKN100,0.00,VWS V14.01,2013-10-30 17:31:00,
2013-10-30 13:36:00,54.9,41.3,30.21,South,179,2.0,3.0,60,0.00,,BKN100,0.00,VWS V14.01,2013-10-30 17:36:00,
2013-10-30 13:42:00,55.0,40.1,30.21,WSW,241,2.0,4.0,57,0.00,,BKN100,0.00,VWS V14.01,2013-10-30 17:42:00,
2013-10-30 13:47:00,55.2,40.7,30.20,WNW,289,1.0,4.0,58,0.00,,BKN100,0.00,VWS V14.01,2013-10-30 17:47:00,
2013-10-30 13:52:00,55.3,40.8,30.20,NW,319,2.0,4.0,58,0.00,,BKN100,0.00,VWS V14.01,2013-10-30 17:52:00,
2013-10-30 13:57:00,55.4,41.8,30.20,ESE,117,2.0,4.0,60,0.00,,BKN100,0.00,VWS V14.01,2013-10-30 17:57:00,
2013-10-30 14:00:00,55.5,41.0,30.20,SE,131,3.0,4.0,58,0.00,,OVC,0.00,VWS V14.01,2013-10-30 18:00:00,
2013-10-30 14:02:00,55.4,40.9,30.20,SSE,156,0.0,4.0,58,0.00,,BKN100,0.00,VWS V14.01,2013-10-30 18:02:00,
2013-10-30 14:07:00,55.8,41.7,30.19,SSE,153,3.0,3.0,59,0.00,,BKN100,0.00,VWS V14.01,2013-10-30 18:07:00,
2013-10-30 14:12:00,55.9,40.9,30.19,SE,135,1.0,4.0,57,0.00,,BKN100,0.00,VWS V14.01,2013-10-30 18:12:00,
2013-10-30 14:17:00,55.9,41.3,30.19,East,96,0.0,4.0,58,0.00,,BKN100,0.00,VWS V14.01,2013-10-30 18:17:00,
2013-10-30 14:22:00,55.9,40.9,30.19,SE,129,1.0,4.0,57,0.00,,BKN100,0.00,VWS V14.01,2013-10-30 18:22:00,
2013-10-30 14:27:00,56.1,41.1,30.19,ESE,107,0.0,4.0,57,0.00,,BKN100,0.00,VWS V14.01,2013-10-30 18:27:00,
2013-10-30 14:30:00,56.3,40.8,30.18,NNE,15,2.0,4.0,56,0.00,,OVC,0.00,VWS V14.01,2013-10-30 18:30:00,
2013-10-30 14:33:00,56.3,40.8,30.18,North,356,2.0,4.0,56,0.00,,BKN100,0.00,VWS V14.01,2013-10-30 18:33:00,
2013-10-30 14:38:00,56.4,41.8,30.18,SSE,151,2.0,3.0,58,0.00,,BKN100,0.00,VWS V14.01,2013-10-30 18:38:00,
2013-10-30 14:43:00,56.9,40.9,30.18,South,181,1.0,3.0,55,0.00,,BKN100,0.00,VWS V14.01,2013-10-30 18:43:00,
2013-10-30 14:48:00,57.1,41.6,30.18,ESE,104,1.0,3.0,56,0.00,,CLR,0.00,VWS V14.01,2013-10-30 18:48:00,
2013-10-30 14:53:00,57.1,41.6,30.18,East,100,5.0,5.0,56,0.00,,CLR,0.00,VWS V14.01,2013-10-30 18:53:00,
2013-10-30 14:58:00,57.1,42.0,30.18,East,86,1.0,5.0,57,0.00,,CLR,0.00,VWS V14.01,2013-10-30 18:58:00,
2013-10-30 15:00:00,57.0,41.5,30.18,ENE,64,1.0,5.0,56,0.00,,OVC,0.00,VWS V14.01,2013-10-30 19:00:00,
2013-10-30 15:03:00,57.0,41.5,30.18,SE,127,2.0,2.0,56,0.00,,CLR,0.00,VWS V14.01,2013-10-30 19:03:00,
2013-10-30 15:08:00,56.9,41.4,30.18,ESE,104,2.0,3.0,56,0.00,,CLR,0.00,VWS V14.01,2013-10-30 19:08:00,
2013-10-30 15:13:00,56.8,41.8,30.18,ESE,120,1.0,3.0,57,0.00,,CLR,0.00,VWS V14.01,2013-10-30 19:13:00,
2013-10-30 15:18:00,56.7,41.2,30.18,East,100,1.0,3.0,56,0.00,,CLR,0.00,VWS V14.01,2013-10-30 19:18:00,
2013-10-30 15:24:00,56.5,41.0,30.18,SE,131,1.0,3.0,56,0.00,,CLR,0.00,VWS V14.01,2013-10-30 19:24:00,
2013-10-30 15:29:00,56.4,41.4,30.18,ESE,113,0.0,3.0,57,0.00,,CLR,0.00,VWS V14.01,2013-10-30 19:29:00,
2013-10-30 15:30:00,56.5,41.9,30.18,SE,125,1.0,3.0,58,0.00,,OVC,0.00,VWS V14.01,2013-10-30 19:30:00,
2013-10-30 15:34:00,56.5,41.5,30.18,SE,129,4.0,4.0,57,0.00,,CLR,0.00,VWS V14.01,2013-10-30 19:34:00,
2013-10-30 15:39:00,56.5,41.5,30.17,ESE,110,1.0,4.0,57,0.00,,CLR,0.00,VWS V14.01,2013-10-30 19:39:00,
2013-10-30 15:44:00,56.3,41.3,30.17,East,82,1.0,4.0,57,0.00,,CLR,0.00,VWS V14.01,2013-10-30 19:44:00,
2013-10-30 15:49:00,56.3,41.7,30.17,ESE,107,2.0,4.0,58,0.00,,CLR,0.00,VWS V14.01,2013-10-30 19:49:00,
2013-10-30 15:54:00,56.1,41.5,30.17,ESE,103,2.0,4.0,58,0.00,,CLR,0.00,VWS V14.01,2013-10-30 19:54:00,
2013-10-30 15:59:00,55.8,41.7,30.17,East,100,2.0,4.0,59,0.00,,CLR,0.00,VWS V14.01,2013-10-30 19:59:00,
2013-10-30 16:00:00,55.7,42.0,30.17,ESE,110,2.0,4.0,60,0.00,,OVC,0.00,VWS V14.01,2013-10-30 20:00:00,
2013-10-30 16:04:00,55.7,42.0,30.17,ENE,74,2.0,3.0,60,0.00,,CLR,0.00,VWS V14.01,2013-10-30 20:04:00,
2013-10-30 16:09:00,55.6,42.0,30.17,ESE,115,3.0,3.0,60,0.00,,CLR,0.00,VWS V14.01,2013-10-30 20:09:00,
2013-10-30 16:14:00,55.7,41.6,30.17,SE,133,2.0,7.0,59,0.00,,CLR,0.00,VWS V14.01,2013-10-30 20:14:00,
2013-10-30 16:20:00,55.4,41.8,30.17,East,95,2.0,7.0,60,0.00,,CLR,0.00,VWS V14.01,2013-10-30 20:20:00,
2013-10-30 16:25:00,55.3,41.7,30.17,SE,134,4.0,7.0,60,0.00,,CLR,0.00,VWS V14.01,2013-10-30 20:25:00,
2013-10-30 16:30:00,55.3,41.7,30.17,SE,124,1.0,7.0,60,0.00,,CLR,0.00,VWS V14.01,2013-10-30 20:30:00,
2013-10-30 16:35:00,55.1,41.5,30.17,SW,231,1.0,6.0,60,0.00,,CLR,0.00,VWS V14.01,2013-10-30 20:35:00,
2013-10-30 16:40:00,55.0,41.4,30.17,East,98,1.0,6.0,60,0.00,,CLR,0.00,VWS V14.01,2013-10-30 20:40:00,
2013-10-30 16:45:00,54.8,41.2,30.17,SE,144,1.0,6.0,60,0.00,,CLR,0.00,VWS V14.01,2013-10-30 20:45:00,
2013-10-30 16:50:00,54.7,41.5,30.17,ESE,110,2.0,6.0,61,0.00,,CLR,0.00,VWS V14.01,2013-10-30 20:50:00,
2013-10-30 16:55:00,54.6,41.0,30.17,South,174,2.0,6.0,60,0.00,,CLR,0.00,VWS V14.01,2013-10-30 20:55:00,
2013-10-30 17:00:00,54.3,41.2,30.17,SSE,155,1.0,6.0,61,0.00,,CLR,0.00,VWS V14.01,2013-10-30 21:00:00,
2013-10-30 17:06:00,54.2,41.1,30.17,ESE,122,1.0,4.0,61,0.00,,CLR,0.00,VWS V14.01,2013-10-30 21:06:00,
2013-10-30 17:11:00,54.0,41.3,30.17,SE,142,1.0,8.0,62,0.00,,CLR,0.00,VWS V14.01,2013-10-30 21:11:00,
2013-10-30 17:16:00,53.7,40.6,30.16,SE,129,4.0,8.0,61,0.00,,CLR,0.00,VWS V14.01,2013-10-30 21:16:00,
2013-10-30 17:21:00,53.6,40.5,30.16,ESE,122,5.0,8.0,61,0.00,,CLR,0.00,VWS V14.01,2013-10-30 21:21:00,
2013-10-30 17:26:00,53.4,40.7,30.16,SE,131,1.0,8.0,62,0.00,,CLR,0.00,VWS V14.01,2013-10-30 21:26:00,
2013-10-30 17:30:00,52.9,40.7,30.16,ENE,70,0.0,8.0,63,0.00,,OVC,0.00,VWS V14.01,2013-10-30 21:30:00,
2013-10-30 17:31:00,53.1,40.8,30.16,ENE,70,1.0,8.0,63,0.00,,CLR,0.00,VWS V14.01,2013-10-30 21:31:00,
2013-10-30 17:36:00,52.5,40.7,30.17,ENE,72,0.0,1.0,64,0.00,,CLR,0.00,VWS V14.01,2013-10-30 21:36:00,
2013-10-30 17:41:00,51.8,40.8,30.17,ENE,72,0.0,1.0,66,0.00,,CLR,0.00,VWS V14.01,2013-10-30 21:41:00,
2013-10-30 17:46:00,51.0,40.4,30.17,ENE,72,0.0,1.0,67,0.00,,CLR,0.00,VWS V14.01,2013-10-30 21:46:00,
2013-10-30 17:51:00,50.5,40.3,30.17,ENE,72,0.0,1.0,68,0.00,,CLR,0.00,VWS V14.01,2013-10-30 21:51:00,
2013-10-30 17:56:00,50.2,40.1,30.18,ENE,72,0.0,1.0,68,0.00,,CLR,0.00,VWS V14.01,2013-10-30 21:56:00,
2013-10-30 18:00:00,49.6,39.9,30.18,ENE,69,0.0,1.0,69,0.00,,OVC,0.00,VWS V14.01,2013-10-30 22:00:00,
2013-10-30 18:02:00,49.7,40.0,30.18,ENE,70,0.0,1.0,69,0.00,,CLR,0.00,VWS V14.01,2013-10-30 22:02:00,
2013-10-30 18:07:00,49.3,39.9,30.17,ENE,72,0.0,0.0,70,0.00,,CLR,0.00,VWS V14.01,2013-10-30 22:07:00,
2013-10-30 18:12:00,49.0,40.0,30.18,ENE,70,0.0,0.0,71,0.00,,CLR,0.00,VWS V14.01,2013-10-30 22:12:00,
2013-10-30 18:17:00,48.8,39.8,30.18,ENE,70,0.0,0.0,71,0.00,,CLR,0.00,VWS V14.01,2013-10-30 22:17:00,
2013-10-30 18:22:00,48.5,39.9,30.18,ENE,70,0.0,0.0,72,0.00,,CLR,0.00,VWS V14.01,2013-10-30 22:22:00,
2013-10-30 18:27:00,48.3,40.1,30.17,ENE,63,0.0,0.0,73,0.00,,CLR,0.00,VWS V14.01,2013-10-30 22:27:00,
2013-10-30 18:30:00,48.0,39.8,30.18,NE,41,0.0,0.0,73,0.00,,OVC,0.00,VWS V14.01,2013-10-30 22:30:00,
2013-10-30 18:32:00,48.0,39.8,30.18,NE,41,0.0,0.0,73,0.00,,CLR,0.00,VWS V14.01,2013-10-30 22:32:00,
2013-10-30 18:37:00,47.9,40.0,30.18,NE,41,0.0,0.0,74,0.00,,CLR,0.00,VWS V14.01,2013-10-30 22:37:00,
2013-10-30 18:42:00,47.6,39.7,30.18,NE,41,0.0,0.0,74,0.00,,CLR,0.00,VWS V14.01,2013-10-30 22:42:00,
2013-10-30 18:48:00,47.5,40.0,30.18,ESE,117,0.0,0.0,75,0.00,,CLR,0.00,VWS V14.01,2013-10-30 22:48:00,
2013-10-30 18:53:00,47.2,39.7,30.18,East,84,0.0,0.0,75,0.00,,CLR,0.00,VWS V14.01,2013-10-30 22:53:00,
2013-10-30 18:58:00,46.9,39.7,30.19,ENE,70,0.0,0.0,76,0.00,,CLR,0.00,VWS V14.01,2013-10-30 22:58:00,
2013-10-30 19:00:00,46.8,39.7,30.19,ENE,69,0.0,0.0,76,0.00,,OVC,0.00,VWS V14.01,2013-10-30 23:00:00,
2013-10-30 19:03:00,46.8,39.7,30.19,ENE,70,0.0,0.0,76,0.00,,CLR,0.00,VWS V14.01,2013-10-30 23:03:00,
2013-10-30 19:08:00,46.8,39.7,30.19,ENE,70,0.0,0.0,76,0.00,,CLR,0.00,VWS V14.01,2013-10-30 23:08:00,
2013-10-30 19:13:00,46.9,39.7,30.19,ENE,70,0.0,0.0,76,0.00,,CLR,0.00,VWS V14.01,2013-10-30 23:13:00,
2013-10-30 19:18:00,46.9,39.4,30.19,ENE,70,0.0,0.0,75,0.00,,CLR,0.00,VWS V14.01,2013-10-30 23:18:00,
2013-10-30 19:23:00,46.8,39.3,30.19,ENE,69,0.0,0.0,75,0.00,,CLR,0.00,VWS V14.01,2013-10-30 23:23:00,
2013-10-30 19:28:00,46.7,39.2,30.20,ENE,70,0.0,0.0,75,0.00,,CLR,0.00,VWS V14.01,2013-10-30 23:28:00,
2013-10-30 19:30:00,46.5,39.3,30.20,ENE,69,0.0,0.0,76,0.00,,OVC,0.00,VWS V14.01,2013-10-30 23:30:00,
2013-10-30 19:33:00,46.5,39.4,30.20,ENE,70,0.0,0.0,76,0.00,,CLR,0.00,VWS V14.01,2013-10-30 23:33:00,
2013-10-30 19:38:00,46.3,39.2,30.20,ENE,69,0.0,0.0,76,0.00,,CLR,0.00,VWS V14.01,2013-10-30 23:38:00,
2013-10-30 19:43:00,46.0,38.9,30.19,ENE,71,0.0,0.0,76,0.00,,CLR,0.00,VWS V14.01,2013-10-30 23:43:00,
2013-10-30 19:49:00,45.4,38.6,30.19,ENE,70,0.0,0.0,77,0.00,,CLR,0.00,VWS V14.01,2013-10-30 23:49:00,
2013-10-30 19:54:00,44.8,38.4,30.19,ENE,71,0.0,0.0,78,0.00,,CLR,0.00,VWS V14.01,2013-10-30 23:54:00,
2013-10-30 19:59:00,44.0,38.2,30.18,ENE,70,0.0,0.0,80,0.00,,CLR,0.00,VWS V14.01,2013-10-30 23:59:00,
2013-10-30 20:00:00,43.6,38.2,30.18,ENE,69,0.0,0.0,81,0.00,,OVC,0.00,VWS V14.01,2013-10-31 00:00:00,
2013-10-30 20:04:00,43.5,38.1,30.18,ENE,70,0.0,0.0,81,0.00,,CLR,0.00,VWS V14.01,2013-10-31 00:04:00,
2013-10-30 20:09:00,43.1,38.0,30.18,ENE,70,0.0,0.0,82,0.00,,CLR,0.00,VWS V14.01,2013-10-31 00:09:00,
2013-10-30 20:14:00,42.9,38.1,30.18,ENE,70,0.0,0.0,83,0.00,,CLR,0.00,VWS V14.01,2013-10-31 00:14:00,
2013-10-30 20:19:00,43.0,38.5,30.18,ENE,70,0.0,0.0,84,0.00,,CLR,0.00,VWS V14.01,2013-10-31 00:19:00,
2013-10-30 20:25:00,43.2,38.4,30.18,NE,39,0.0,0.0,83,0.00,,CLR,0.00,VWS V14.01,2013-10-31 00:25:00,
2013-10-30 20:30:00,43.2,38.4,30.18,NE,39,0.0,0.0,83,0.00,,CLR,0.00,VWS V14.01,2013-10-31 00:30:00,
2013-10-30 20:35:00,43.2,38.1,30.19,NE,39,0.0,0.0,82,0.00,,CLR,0.00,VWS V14.01,2013-10-31 00:35:00,
2013-10-30 20:40:00,43.0,37.9,30.19,NE,39,0.0,0.0,82,0.00,,CLR,0.00,VWS V14.01,2013-10-31 00:40:00,
2013-10-30 20:45:00,42.5,37.4,30.19,NE,39,0.0,0.0,82,0.00,,CLR,0.00,VWS V14.01,2013-10-31 00:45:00,
2013-10-30 20:50:00,42.3,37.8,30.19,NE,39,0.0,0.0,84,0.00,,CLR,0.00,VWS V14.01,2013-10-31 00:50:00,
2013-10-30 20:55:00,42.5,37.7,30.19,NE,39,0.0,0.0,83,0.00,,CLR,0.00,VWS V14.01,2013-10-31 00:55:00,
2013-10-30 21:00:00,42.1,37.3,30.18,NE,39,0.0,0.0,83,0.00,,CLR,0.00,VWS V14.01,2013-10-31 01:00:00,
2013-10-30 21:05:00,41.5,37.0,30.19,NE,39,0.0,0.0,84,0.00,,CLR,0.00,VWS V14.01,2013-10-31 01:05:00,
2013-10-30 21:11:00,41.0,36.8,30.19,NE,39,0.0,0.0,85,0.00,,CLR,0.00,VWS V14.01,2013-10-31 01:11:00,
2013-10-30 21:16:00,40.7,36.8,30.18,NE,39,0.0,0.0,86,0.00,,CLR,0.00,VWS V14.01,2013-10-31 01:16:00,
2013-10-30 21:21:00,40.3,36.8,30.19,NE,39,0.0,0.0,87,0.00,,CLR,0.00,VWS V14.01,2013-10-31 01:21:00,
2013-10-30 21:26:00,40.2,36.9,30.19,NE,39,0.0,0.0,88,0.00,,CLR,0.00,VWS V14.01,2013-10-31 01:26:00,
2013-10-30 21:30:00,40.0,37.0,30.18,NE,39,0.0,0.0,89,0.00,,OVC,0.00,VWS V14.01,2013-10-31 01:30:00,
2013-10-30 21:31:00,40.0,36.7,30.19,NE,39,0.0,0.0,88,0.00,,CLR,0.00,VWS V14.01,2013-10-31 01:31:00,
2013-10-30 21:36:00,40.2,37.2,30.19,NE,39,0.0,0.0,89,0.00,,CLR,0.00,VWS V14.01,2013-10-31 01:36:00,
2013-10-30 21:41:00,40.4,37.1,30.18,NE,39,0.0,0.0,88,0.00,,CLR,0.00,VWS V14.01,2013-10-31 01:41:00,
2013-10-30 21:46:00,40.6,37.3,30.18,NE,39,0.0,0.0,88,0.00,,CLR,0.00,VWS V14.01,2013-10-31 01:46:00,
2013-10-30 21:51:00,40.4,37.1,30.18,NE,39,0.0,0.0,88,0.00,,CLR,0.00,VWS V14.01,2013-10-31 01:51:00,
2013-10-30 21:57:00,40.1,36.8,30.17,NE,39,0.0,0.0,88,0.00,,CLR,0.00,VWS V14.01,2013-10-31 01:57:00,
2013-10-30 22:00:00,40.1,37.1,30.18,NE,39,0.0,0.0,89,0.00,,OVC,0.00,VWS V14.01,2013-10-31 02:00:00,
2013-10-30 22:02:00,40.0,36.7,30.17,NE,38,0.0,0.0,88,0.00,,CLR,0.00,VWS V14.01,2013-10-31 02:02:00,
2013-10-30 22:07:00,40.1,36.8,30.17,NE,39,0.0,0.0,88,0.00,,CLR,0.00,VWS V14.01,2013-10-31 02:07:00,
2013-10-30 22:12:00,40.0,36.7,30.18,NE,39,0.0,0.0,88,0.00,,CLR,0.00,VWS V14.01,2013-10-31 02:12:00,
2013-10-30 22:17:00,39.6,36.3,30.17,NE,39,0.0,0.0,88,0.00,,CLR,0.00,VWS V14.01,2013-10-31 02:17:00,
2013-10-30 22:22:00,39.4,36.2,30.18,NE,39,0.0,0.0,88,0.00,,CLR,0.00,VWS V14.01,2013-10-31 02:22:00,
2013-10-30 22:27:00,39.1,35.8,30.17,NE,39,0.0,0.0,88,0.00,,CLR,0.00,VWS V14.01,2013-10-31 02:27:00,
2013-10-30 22:30:00,38.6,35.7,30.18,NE,39,0.0,0.0,89,0.00,,OVC,0.00,VWS V14.01,2013-10-31 02:30:00,
2013-10-30 22:32:00,38.7,35.7,30.18,NE,39,0.0,0.0,89,0.00,,CLR,0.00,VWS V14.01,2013-10-31 02:32:00,
2013-10-30 22:37:00,38.3,35.3,30.18,NE,39,0.0,0.0,89,0.00,,CLR,0.00,VWS V14.01,2013-10-31 02:37:00,
2013-10-30 22:42:00,38.3,35.6,30.18,NE,39,0.0,0.0,90,0.00,,CLR,0.00,VWS V14.01,2013-10-31 02:42:00,
2013-10-30 22:48:00,38.3,35.9,30.18,NE,39,0.0,0.0,91,0.00,,CLR,0.00,VWS V14.01,2013-10-31 02:48:00,
2013-10-30 22:53:00,38.1,35.7,30.18,NE,39,0.0,0.0,91,0.00,,CLR,0.00,VWS V14.01,2013-10-31 02:53:00,
2013-10-30 22:58:00,37.9,35.5,30.18,NE,39,0.0,0.0,91,0.00,,CLR,0.00,VWS V14.01,2013-10-31 02:58:00,
2013-10-30 23:00:00,38.0,35.9,30.18,NE,39,0.0,0.0,92,0.00,,OVC,0.00,VWS V14.01,2013-10-31 03:00:00,
2013-10-30 23:01:00,37.9,35.5,30.18,NE,39,0.0,0.0,91,0.00,,CLR,0.00,VWS V14.01,2013-10-31 03:01:00,
2013-10-30 23:06:00,38.0,35.9,30.17,NE,39,0.0,0.0,92,0.00,,CLR,0.00,VWS V14.01,2013-10-31 03:06:00,
2013-10-30 23:11:00,37.9,35.8,30.17,NE,39,0.0,0.0,92,0.00,,CLR,0.00,VWS V14.01,2013-10-31 03:11:00,
2013-10-30 23:16:00,37.9,35.8,30.17,NE,39,0.0,0.0,92,0.00,,CLR,0.00,VWS V14.01,2013-10-31 03:16:00,
2013-10-30 23:21:00,37.9,35.8,30.16,NE,39,0.0,0.0,92,0.00,,CLR,0.00,VWS V14.01,2013-10-31 03:21:00,
2013-10-30 23:26:00,37.9,35.8,30.17,NE,39,0.0,0.0,92,0.00,,CLR,0.00,VWS V14.01,2013-10-31 03:26:00,
2013-10-30 23:30:00,37.9,35.8,30.17,NE,39,0.0,0.0,92,0.00,,OVC,0.00,VWS V14.01,2013-10-31 03:30:00,
2013-10-30 23:31:00,37.9,35.8,30.17,NE,39,0.0,0.0,92,0.00,,CLR,0.00,VWS V14.01,2013-10-31 03:31:00,
2013-10-30 23:36:00,38.0,36.2,30.16,NE,39,0.0,0.0,93,0.00,,CLR,0.00,VWS V14.01,2013-10-31 03:36:00,
2013-10-30 23:42:00,38.1,36.3,30.15,NE,38,0.0,0.0,93,0.00,,CLR,0.00,VWS V14.01,2013-10-31 03:42:00,
2013-10-30 23:47:00,37.7,35.6,30.15,NE,39,0.0,0.0,92,0.00,,CLR,0.00,VWS V14.01,2013-10-31 03:47:00,
2013-10-30 23:52:00,37.8,36.0,30.15,NE,39,0.0,0.0,93,0.00,,CLR,0.00,VWS V14.01,2013-10-31 03:52:00,
2013-10-30 23:57:00,37.8,36.0,30.14,NE,39,0.0,0.0,93,0.00,,CLR,0.00,VWS V14.01,2013-10-31 03:57:00,